This is the latest recevied weather packets stored in our database for station/object IZ2PAG-10. If no packets are shown the sender has not sent any weather packets the latest 10 day(s).
| Time | Temp. | Humidity | Pressure | Rain* | Wind** | Luminosity | Snow |
|---|---|---|---|---|---|---|---|
| 1777429688 | 20° C | 43% | 1017.1 hPa | - | - | - | - |
| 1777427888 | 20° C | 44% | 1017 hPa | - | - | - | - |
| 1777426497 | 20° C | 43% | 1016.8 hPa | - | - | - | - |
| 1777426409 | 20° C | 43% | 1016.8 hPa | - | - | - | - |
| 1777426088 | 20° C | 43% | 1016.8 hPa | - | - | - | - |
| 1777424287 | 20° C | 42% | 1016.6 hPa | - | - | - | - |
| 1777422487 | 20° C | 44% | 1016.8 hPa | - | - | - | - |
| 1777420687 | 20° C | 44% | 1016.6 hPa | - | - | - | - |
| 1777418887 | 20° C | 46% | 1016.9 hPa | - | - | - | - |
| 1777417086 | 20° C | 44% | 1016.9 hPa | - | - | - | - |
| 1777415331 | 20.56° C | 42% | 1016.9 hPa | - | - | - | - |
| 1777415286 | 20.56° C | 42% | 1016.9 hPa | - | - | - | - |
| 1777413485 | 20.56° C | 42% | 1016.8 hPa | - | - | - | - |
| 1777411685 | 20° C | 45% | 1016.7 hPa | - | - | - | - |
| 1777409884 | 20° C | 45% | 1016.4 hPa | - | - | - | - |
| 1777408121 | 20.56° C | 43% | 1016.5 hPa | - | - | - | - |
| 1777408084 | 20.56° C | 43% | 1016.5 hPa | - | - | - | - |
| 1777406283 | 20.56° C | 42% | 1016.5 hPa | - | - | - | - |
| 1777404483 | 20.56° C | 42% | 1016 hPa | - | - | - | - |
| 1777402764 | 20° C | 46% | 1015.9 hPa | - | - | - | - |
| 1777402683 | 20° C | 46% | 1015.9 hPa | - | - | - | - |
| 1777400883 | 20° C | 44% | 1015.7 hPa | - | - | - | - |
| 1777399082 | 20.56° C | 44% | 1015.4 hPa | - | - | - | - |
| 1777397426 | 20.56° C | 43% | 1015.3 hPa | - | - | - | - |
| 1777397282 | 20.56° C | 43% | 1015.3 hPa | - | - | - | - |
* Rain since midnight (hover to see other rain measurements)
** Current wind speed in m/s (hover to see current wind gust speed)